GW6166 Weather Reports


time (UTC)temp
C
wind
direction
speed
KPH
gust
KPH
rain 1hr
cm
rain 24hr
cm
rain mn
cm
humidity
%
barometer
mb
20260510193008 21 278 1.6 6.4 0.03 0.28 0.05 69 1011.6
20260510191515 20 113 0.0 9.7 0.03 0.30 0.05 72 1011.8
20260510190003 20 197 1.6 11.3 0.00 0.28 0.03 64 1011.9
20260510184503 20 265 6.4 19.3 0.00 0.28 0.03 62 1011.8
20260510183005 21 96 4.8 8.0 0.00 0.30 0.03 61 1011.6
20260510181529 20 238 3.2 8.0 0.00 0.30 0.03 65 1011.9
20260510180017 19 181 1.6 6.4 0.00 0.30 0.03 69 1011.8
20260510174503 20 220 4.8 11.3 0.00 0.33 0.03 62 1011.9
20260510173004 20 205 1.6 11.3 0.00 0.36 0.03 66 1012.0
20260510171510 20 191 4.8 19.3 0.00 0.38 0.03 64 1012.2
20260510170017 20 111 1.6 8.0 0.00 0.41 0.03 67 1012.4
20260510164523 20 188 3.2 11.3 0.00 0.43 0.03 66 1012.5
20260510163004 20 219 1.6 6.4 0.00 0.43 0.03 71 1012.8
20260510161504 18 207 0.0 16.1 0.00 0.46 0.03 74 1012.8
20260510160010 17 200 1.6 14.5 0.00 0.46 0.03 75 1012.8
20260510154515 17 162 4.8 14.5 0.00 0.48 0.03 74 1013.0
20260510153019 16 350 1.6 12.9 0.00 0.48 0.03 82 1013.1
20260510151522 15 265 1.6 8.0 0.00 0.51 0.03 81 1013.3
20260510150006 15 301 4.8 12.9 0.00 0.51 0.03 81 1013.3
20260510144529 15 215 0.0 4.8 0.00 0.53 0.03 84 1013.3
20260510143027 14 259 1.6 11.3 0.00 0.53 0.03 86 1013.3
20260510141535 13 246 0.0 8.0 0.00 0.56 0.03 88 1013.2
20260510140026 13 122 1.6 6.4 0.00 0.56 0.03 90 1013.1
20260510134526 12 232 3.2 8.0 0.00 0.58 0.03 90 1013.3
20260510133026 12 205 3.2 6.4 0.00 0.58 0.03 91 1013.3
20260510131517 12 262 0.0 3.2 0.00 0.61 0.03 93 1013.3
20260510130023 11 203 0.0 6.4 0.00 0.61 0.03 93 1013.2
20260510124524 11 211 1.6 6.4 0.00 0.64 0.03 93 1013.1
20260510123009 11 203 0.0 1.6 0.00 0.66 0.03 95 1012.9
20260510121515 11 231 0.0 1.6 0.00 0.66 0.03 96 1013.0
20260510120019 11 186 0.0 0.0 0.00 0.66 0.03 96 1013.0
20260510114531 11 185 0.0 1.6 0.00 0.66 0.03 96 1013.0
20260510113027 11 113 0.0 1.6 0.00 0.66 0.03 97 1012.9
20260510111528 11 115 0.0 1.6 0.00 0.66 0.03 97 1012.8
20260510110016 10 115 0.0 3.2 0.00 0.69 0.03 97 1012.8
20260510104520 10 148 0.0 3.2 0.00 0.71 0.03 97 1012.7
20260510103025 10 110 0.0 3.2 0.00 0.76 0.03 97 1012.4
20260510101526 10 91 0.0 1.6 0.00 0.79 0.03 97 1012.4
20260510100015 10 205 0.0 3.2 0.00 0.84 0.03 97 1011.8
20260510094523 10 127 0.0 1.6 0.00 0.86 0.03 97 1011.4
20260510093031 10 164 0.0 0.0 0.00 0.89 0.03 97 1011.7
20260510091522 10 164 0.0 0.0 0.00 0.89 0.03 97 1011.6
20260510090024 10 164 0.0 1.6 0.00 0.89 0.03 97 1011.6
20260510084526 10 202 0.0 1.6 0.00 0.89 0.03 97 1012.0
20260510083018 10 198 0.0 0.0 0.00 0.89 0.03 97 1012.0
20260510081511 10 198 0.0 0.0 0.00 0.89 0.03 97 1012.0
20260510080027 10 202 0.0 1.6 0.00 0.89 0.03 97 1012.1
20260510074511 10 214 0.0 4.8 0.00 0.89 0.03 97 1012.1
20260510073014 10 227 0.0 1.6 0.00 0.89 0.03 97 1011.5
20260510071533 10 240 0.0 1.6 0.00 0.89 0.03 97 1011.4
20260510070005 10 240 0.0 1.6 0.00 0.89 0.03 97 1011.6
20260510064509 10 231 0.0 6.4 0.00 0.89 0.03 97 1011.6
20260510063013 10 287 0.0 1.6 0.00 0.89 0.03 97 1011.6
20260510061533 10 284 0.0 1.6 0.00 0.89 0.03 97 1011.5
20260510060020 10 231 0.0 1.6 0.00 0.89 0.03 97 1011.3
20260510054506 10 231 0.0 1.6 0.00 0.89 0.03 97 1011.5
20260510053009 10 100 0.0 1.6 0.00 0.89 0.03 97 1011.8
20260510051512 10 100 0.0 1.6 0.00 0.89 0.03 97 1011.3
20260510050021 9 99 0.0 1.6 0.03 0.89 0.03 96 1011.5
20260510044521 10 99 0.0 1.6 0.03 0.89 0.03 96 1011.5
20260510043013 10 118 3.2 6.4 0.03 0.89 0.03 96 1011.5
20260510041510 10 114 1.6 3.2 0.03 0.89 0.03 97 1011.9
20260510040014 10 285 0.0 1.6 0.00 0.86 0.00 96 1012.0
20260510034520 10 276 0.0 6.4 0.00 0.86 0.86 96 1011.9
20260510033023 10 289 0.0 6.4 0.00 0.86 0.86 96 1011.7
20260510031538 10 323 0.0 3.2 0.00 0.86 0.86 96 1011.6
20260510030012 10 270 0.0 1.6 0.00 0.86 0.86 96 1011.7
20260510024530 10 101 0.0 1.6 0.00 0.86 0.86 96 1011.5
20260510023030 10 101 0.0 3.2 0.00 0.86 0.86 96 1011.5
20260510021525 10 113 3.2 3.2 0.00 0.86 0.86 96 1011.8
20260510020026 10 266 0.0 3.2 0.00 0.86 0.86 96 1012.4
20260510014513 10 268 0.0 1.6 0.00 0.86 0.86 96 1012.3
20260510013017 10 262 0.0 1.6 0.00 0.86 0.86 96 1012.2
20260510011532 10 262 0.0 0.0 0.00 0.86 0.86 96 1012.0
20260510010024 10 262 0.0 3.2 0.00 0.86 0.86 96 1011.7
20260510004527 10 122 0.0 1.6 0.00 0.86 0.86 96 1011.5
20260510003022 10 151 0.0 1.6 0.00 0.86 0.86 96 1011.4
20260510001517 10 87 3.2 4.8 0.00 0.86 0.86 96 1011.4
20260510000004 9 335 0.0 3.2 0.00 0.86 0.86 95 1011.5
20260509234517 9 284 0.0 4.8 0.00 0.86 0.86 96 1011.6
20260509233017 10 15 1.6 4.8 0.00 0.86 0.86 96 1011.6
20260509231528 10 121 1.6 4.8 0.00 0.86 0.86 96 1011.5
20260509230010 10 109 0.0 4.8 0.00 0.86 0.86 96 1011.5
20260509224503 10 275 0.0 0.0 0.00 0.86 0.86 96 1011.4
20260509223007 9 275 0.0 3.2 0.03 0.86 0.86 96 1011.4
20260509221509 9 316 0.0 3.2 0.03 0.86 0.86 95 1011.5
20260509220015 9 326 3.2 6.4 0.05 0.86 0.86 95 1011.5
20260509214518 9 103 4.8 8.0 0.10 0.86 0.86 95 1011.3
20260509213006 9 132 1.6 6.4 0.08 0.84 0.84 95 1011.7
20260509211506 9 317 0.0 3.2 0.13 0.84 0.84 94 1011.8
20260509210028 8 168 0.0 0.0 0.13 0.81 0.81 94 1011.9
20260509204516 8 165 0.0 1.6 0.13 0.76 0.76 94 1012.1
20260509203023 8 108 0.0 0.0 0.13 0.76 0.76 94 1012.2
20260509201508 8 108 0.0 3.2 0.10 0.71 0.71 94 1012.5
20260509200009 8 340 0.0 1.6 0.08 0.69 0.69 94 1012.6
20260509194534 8 344 0.0 1.6 0.03 0.64 0.64 94 1012.6